SCP
1 1 1 2 2 1 1 1 1 1 1 1 1 1 1 1 0 0 0 0 0 0 0 0 0 0 0 0 0 0 0 0 0 0 0 0 0 0 0 0 0 0 0
1 1 1 1 1 1 1 1 1 1 1 1 1 1 1 1 1 0 0 0 0 0 0 0 0 0 0 0 0 0 0 0 0 0 0 0 0 0 0 0 0 0 0
1 1 1 1 1 1 1 1 1 1 1 1 1 1 1 1 1 1 0 0 0 0 0 0 0 0 0 0 0 0 0 0 0 0 0 0 0 0 0 0 0 0 0
1 1 1 1 1 1 1 1 1 1 1 1 1 1 1 1 1 1 1 0 0 0 0 0 0 0 0 0 0 0 0 0 0 0 0 0 0 0 0 0 0 0 0
1 1 1 1 1 1 1 1 1 1 1 1 1 1 1 1 1 1 1 1 0 0 0 0 0 0 0 0 0 0 0 0 0 0 0 0 0 0 0 0 0 0 0
1 1 1 1 1 1 1 1 1 1 1 1 1 1 1 1 1 1 1 1 1 0 0 0 0 0 0 0 0 0 0 0 0 0 0 0 0 0 0 0 0 0 0
1 1 1 1 1 1 1 1 1 1 1 1 1 1 1 1 1 1 1 1 1 1 0 0 0 0 0 0 0 0 0 0 0 0 0 0 0 0 0 0 0 0 0
1 1 1 1 1 1 1 1 0 1 1 1 1 1 1 1 1 1 1 1 1 1 1 0 0 0 0 0 0 0 0 0 0 0 0 0 0 0 0 0 0 0 0
1 1 1 1 1 1 0 0 0 1 1 1 1 1 1 1 1 1 1 1 1 1 0 0 0 0 0 0 0 0 0 0 0 0 0 0 0 0 0 0 0 0 0
1 1 1 1 0 0 0 0 0 1 1 1 1 1 1 1 1 1 1 1 1 0 0 0 0 0 0 0 0 0 0 0 0 0 0 0 0 0 0 0 0 0 0
1 1 1 0 0 0 0 0 0 0 1 1 1 1 1 1 1 1 1 1 1 0 0 0 0 0 0 0 0 0 0 0 0 0 0 0 0 0 0 0 0 0 0
1 1 0 0 0 0 0 0 0 0 0 1 1 1 1 0 0 1 1 1 1 0 0 0 0 0 0 0 0 0 0 0 0 0 0 0 0 0 0 0 0 0 0
1 1 0 0 0 0 0 0 0 0 0 0 0 0 0 0 0 0 0 0 0 0 0 0 0 0 0 0 0 0 0 0 0 0 0 0 0 0 0 0 0 0 0
1 1 0 0 0 0 0 0 0 0 0 0 0 0 0 0 0 0 0 0 0 0 0 0 0 0 0 0 0 0 0 0 0 0 0 0 0 0 0 0 0 0 0
1 0 0 0 0 0 0 0 0 0 0 0 0 0 0 0 0 0 0 0 0 0 0 0 0 0 0 0 0 0 0 0 0 0 0 0 0 0 0 0 0 0 0
0 0 0 0 0 0 0 0 0 0 0 0 0 0 0 0 0 0 0 0 0 0 0 0 0 0 0 0 0 0 0 0 0 0 0 0 0 0 0 0 0 0 0
0 0 0 0 0 0 0 0 0 0 0 0 0 0 0 0 0 0 0 0 0 0 0 0 0 0 0 0 0 0 0 0 0 0 0 0 0 0 0 0 0 0 0
0 0 0 0 0 0 0 0 0 0 0 0 0 0 0 0 0 0 0 0 0 0 0 0 0 0 0 0 0 0 0 0 0 0 0 0 0 0 0 0 0 0 0
0 0 0 0 0 0 0 0 0 0 0 0 0 0 0 0 0 0 0 0 0 0 0 0 0 0 0 0 0 0 0 0 0 0 0 0 0 0 0 0 0 0 0
0 0 0 0 0 0 0 0 0 0 0 0 0 0 0 0 0 0 0 0 0 0 0 0 0 0 0 0 0 0 0 0 0 0 0 0 0 0 0 0 0 0 0
0 0 0 0 0 0 0 0 0 0 0 0 0 0 0 0 0 0 0 0 0 0 0 0 0 0 0 0 0 0 0 0 0 0 0 0 0 0 0 0 0 0 0
0 0 0 0 0 0 0 0 0 0 0 0 0 0 0 0 0 0 0 0 0 0 0 0 0 0 0 0 0 0 0 0 0 0 0 0 0 0 0 0 0 0 0
0 0 0 0 0 0 0 0 0 0 0 0 0 0 0 0 0 0 0 0 0 0 0 0 0 0 0 0 0 0 0 0 0 0 0 0 0 0 0 0 0 0 0
0 0 0 0 0 0 0 0 0 0 0 0 0 0 0 0 0 0 0 0 0 0 0 0 0 0 0 0 0 0 0 0 0 0 0 0 0 0 0 0 0 0 0
0 0 0 0 0 0 0 0 0 0 0 0 0 0 0 0 0 0 0 0 0 0 0 0 0 0 0 0 0 0 0 0 0 0 0 0 0 0 0 0 0 0 0
0 0 0 0 0 0 0 0 0 0 0 0 0 0 0 0 0 0 0 0 0 0 0 0 0 0 0 0 0 0 0 0 0 0 0 0 0 0 0 0 0 0 0
Wind_Speed
5 7 8 9 9 7 8 7 5 3 3 2 2 2 2 1 1 1 2 3 3 3 3 2 2 2 2 2 3 3 2 1 1 2 2 2 1 0 1 2 2 3 3
6 7 8 8 7 7 7 7 6 4 3 3 2 2 2 2 1 1 1 2 3 3 3 3 3 3 2 2 2 3 2 1 1 3 2 2 3 2 1 0 2 2 2
9 9 8 8 8 7 7 7 5 5 4 3 2 2 2 2 1 1 0 1 2 3 3 3 3 3 3 2 2 3 3 2 0 2 3 3 2 1 2 1 1 1 2
9 9 8 8 7 6 6 6 6 5 3 3 3 4 3 2 2 2 1 1 1 2 3 3 3 3 3 3 2 2 2 3 1 0 1 2 4 3 0 2 1 1 2
9 8 8 8 8 7 6 5 5 4 3 3 4 3 2 2 1 1 1 1 1 1 2 3 3 3 3 3 2 2 2 2 2 1 1 1 1 2 3 1 2 1 1
7 6 6 6 6 6 6 5 5 3 3 3 3 4 3 2 2 2 1 1 1 1 2 2 2 3 2 3 3 3 3 2 2 1 1 2 2 2 2 2 2 1 2
6 7 7 6 6 6 6 5 5 3 3 3 2 3 3 3 3 3 3 2 1 1 2 2 2 2 3 3 2 2 2 2 2 2 1 1 1 2 2 2 1 1 1
6 6 6 7 6 6 5 5 4 3 2 2 2 2 2 2 2 2 2 2 2 2 2 3 3 3 3 3 3 2 2 2 2 2 2 1 1 1 2 3 2 1 1
7 6 5 5 6 6 5 4 4 3 2 3 2 2 2 2 2 2 1 1 1 2 2 2 3 2 2 3 3 2 2 2 2 2 1 1 1 1 1 2 3 3 2
5 5 5 4 4 5 4 4 4 3 2 2 2 1 1 1 2 2 1 1 1 2 2 2 3 3 3 3 3 2 2 2 2 2 2 1 1 1 1 1 2 2 3
6 5 5 4 4 4 4 3 3 3 2 1 1 1 0 1 1 1 2 2 2 2 2 2 2 3 3 3 3 3 3 3 2 1 2 2 2 1 1 1 1 2 2
5 5 5 5 4 3 3 4 3 3 2 2 1 1 1 0 1 1 2 2 2 2 2 2 2 3 3 3 4 4 4 3 3 3 2 2 2 1 1 1 1 1 2
5 4 3 4 3 3 3 3 3 2 2 1 2 1 1 1 2 2 2 2 2 2 2 3 3 3 3 3 4 4 4 4 4 4 3 3 2 2 1 1 1 1 1
6 5 3 3 2 2 3 3 2 2 2 2 2 2 2 3 3 2 2 3 3 3 3 3 4 4 4 3 3 3 3 3 4 3 4 3 4 4 3 2 2 2 1
4 4 4 3 2 2 1 2 2 2 2 2 2 3 3 3 2 2 2 2 3 3 3 3 3 3 3 3 4 3 3 3 3 3 3 3 4 5 4 2 2 2 2
5 4 4 4 3 3 2 2 2 2 2 2 2 3 2 2 2 2 3 2 3 3 3 3 3 3 3 4 5 4 3 3 3 3 3 3 3 4 4 4 4 5 4
4 4 4 4 4 4 3 3 3 2 2 3 3 2 2 3 3 3 3 3 3 3 3 3 4 4 4 5 5 5 3 3 3 4 3 3 3 3 3 3 3 4 5
4 3 3 3 3 3 3 2 2 2 3 3 3 3 3 3 3 2 3 4 3 3 3 4 4 4 4 5 5 5 3 3 3 4 4 4 4 4 3 3 3 3 4
3 3 3 3 2 2 2 2 1 2 3 3 4 4 3 3 3 3 4 4 3 3 3 3 4 4 4 5 6 5 2 3 4 4 4 4 4 5 5 3 3 3 4
2 2 2 2 2 2 2 2 1 1 2 2 3 3 3 3 4 4 4 3 3 3 3 3 4 4 4 5 6 6 3 3 3 3 3 5 5 5 5 4 4 4 4
3 3 3 2 2 2 2 1 1 2 2 2 2 2 2 3 4 4 3 3 2 2 3 3 3 3 4 4 5 7 4 4 3 3 3 3 5 5 6 5 5 6 4
2 3 2 2 2 2 2 1 1 2 2 1 1 2 2 3 2 2 2 2 2 2 3 2 2 2 3 3 4 6 6 5 4 4 3 3 5 6 6 6 6 6 4
2 2 2 2 1 2 3 2 2 2 1 1 1 2 2 2 1 2 2 1 1 2 2 2 3 2 2 3 5 6 7 6 4 3 5 5 6 5 4 6 6 4 3
2 2 2 2 2 2 2 2 2 1 1 2 2 2 1 1 1 1 1 2 2 2 2 3 3 2 2 2 2 3 3 4 3 2 3 4 4 3 3 3 3 3 3
1 2 2 2 3 2 2 2 1 1 1 1 1 1 1 1 1 1 1 1 2 3 4 3 3 3 3 5 6 4 3 3 3 2 1 1 1 1 2 2 2 3 2
1 1 2 2 2 2 2 2 2 1 1 1 1 1 1 1 0 0 2 2 2 3 3 3 3 3 4 4 4 5 5 5 4 3 2 2 3 3 3 3 3 3 3
Wind_Direction
154 137 138 137 129 126 128 129 127 133 134 137 142 137 149 161 147 151 150 149 148 151 147 142 135 136 137 145 138 135 134 124 116 95 54 9 3 129 182 180 168 181 186
133 130 128 129 131 138 138 137 143 151 153 161 171 165 155 153 148 131 137 148 147 151 153 147 147 144 138 131 131 130 128 147 132 127 111 42 359 347 329 156 164 179 172
150 149 143 141 138 137 141 141 143 147 155 149 123 97 78 64 58 65 136 194 155 151 152 154 151 147 145 160 166 149 143 159 200 142 141 145 195 293 326 308 198 180 175
151 152 149 143 140 141 137 133 138 141 150 145 131 133 136 147 191 190 192 189 140 138 146 151 156 157 156 158 172 159 155 150 178 250 153 158 155 150 259 319 306 223 194
152 150 149 148 141 136 133 132 131 133 136 140 148 145 143 170 169 142 139 134 119 137 147 158 160 161 163 166 166 153 149 153 168 185 169 119 100 125 144 212 297 311 258
137 136 137 133 128 128 126 129 128 137 142 139 152 152 152 152 132 137 158 172 189 184 172 166 166 168 168 174 176 165 161 168 162 169 160 155 153 169 153 173 216 248 269
145 140 131 125 127 129 132 132 133 139 144 142 150 161 157 157 161 171 179 180 187 200 209 182 175 172 173 175 163 158 164 164 161 171 174 172 183 164 153 149 178 223 282
143 142 141 137 134 134 131 133 141 145 145 147 157 147 144 159 177 175 175 189 202 208 205 193 176 173 169 165 157 159 168 152 175 180 166 155 178 157 148 156 151 142 317
140 138 139 144 143 140 140 142 141 143 150 155 151 147 146 153 176 179 167 185 214 208 190 186 185 183 170 165 162 170 180 163 186 195 179 178 191 170 161 154 155 160 189
135 140 143 144 146 146 141 141 139 144 148 153 162 139 174 188 181 160 166 187 216 221 199 199 192 188 186 177 170 176 196 181 195 183 165 189 200 188 159 164 166 167 170
145 149 152 144 139 136 131 129 136 137 133 139 136 116 163 205 147 167 192 195 203 201 197 201 196 193 196 190 177 192 196 192 199 186 173 198 189 166 202 181 176 178 159
141 143 150 145 138 146 143 139 136 133 147 145 122 135 167 184 175 200 215 207 209 209 198 190 192 199 199 197 194 202 198 196 204 200 183 210 195 175 195 182 198 202 184
121 113 124 149 155 164 157 150 146 146 153 138 125 138 249 233 227 229 220 210 213 220 212 191 193 196 199 203 210 208 205 206 206 201 194 206 188 196 206 195 201 212 183
136 138 156 174 168 158 161 156 152 164 176 166 155 176 218 222 226 231 230 226 218 216 216 207 207 202 198 199 207 210 211 211 212 207 201 200 192 200 200 198 206 189 161
137 149 155 152 150 147 157 157 165 181 187 180 185 206 209 216 222 227 236 239 226 217 213 206 209 206 199 205 205 206 202 203 211 219 215 210 199 199 196 194 200 184 182
156 160 160 160 167 170 179 184 178 201 202 208 221 221 210 213 224 231 230 230 231 226 209 201 199 204 212 206 198 189 197 202 204 219 232 231 214 210 210 210 194 181 182
168 168 175 184 185 185 182 196 206 206 205 221 232 234 229 223 228 231 227 224 225 218 208 208 201 208 216 203 196 193 187 199 213 218 223 233 230 221 224 231 231 219 211
184 186 183 182 190 190 192 191 200 208 213 219 232 236 232 231 230 227 230 230 227 219 216 213 205 205 221 209 199 196 190 201 219 222 219 218 229 231 216 221 232 239 235
183 185 180 172 167 179 186 181 214 232 222 225 233 237 232 230 224 227 235 232 220 225 225 213 202 205 225 213 202 194 191 214 233 233 228 220 226 237 219 202 221 245 261
151 159 147 124 143 203 183 165 208 219 240 241 236 238 231 230 232 231 232 229 216 222 222 219 211 207 217 214 208 195 189 213 234 244 241 234 233 236 209 196 202 231 248
159 148 143 155 188 206 179 171 202 238 257 268 249 233 230 232 236 238 230 223 217 216 220 222 219 214 214 214 211 200 194 205 215 225 239 244 238 229 215 205 208 225 228
147 157 156 183 211 197 170 179 243 264 277 286 282 259 246 243 238 233 231 219 206 210 220 218 223 227 217 210 213 207 209 208 205 222 231 241 240 233 227 219 231 235 217
173 168 166 186 237 216 181 190 246 269 277 296 278 274 270 255 233 219 217 213 201 201 215 211 220 233 227 224 221 214 215 216 210 227 234 237 239 239 236 235 237 224 198
184 161 152 182 242 245 210 209 234 257 266 263 257 261 270 290 300 247 207 191 197 205 213 215 221 225 223 225 221 214 218 226 227 239 250 244 243 236 236 240 235 217 207
188 170 173 199 231 233 233 240 233 224 245 276 270 269 260 260 316 334 294 227 229 216 208 217 212 203 221 231 210 193 204 207 207 188 197 221 220 227 238 239 231 221 217
182 187 203 213 232 225 225 239 233 218 201 229 275 275 277 287 280 338 339 338 297 273 231 211 202 218 217 209 195 203 212 211 192 164 201 221 219 220 222 224 230 221 216